Home   Weather   Stoke-on-Trent   Past weeks

Flag for United Kingdom Past Weather in Stoke-on-Trent, England, United Kingdom — Yesterday and Last 2 Weeks

Now
54 °F

Overcast.


Feels Like: 51 °F
Forecast: 41 / 57 °F
Wind: 8 mph from West

Location: Manchester Airport

Current Time: Apr 28, 2017 at 3:29:27 pm

Latest Report: Apr 28, 2017 at 2:20 pm


Visibility: N/A

Pressure: 30.01 "Hg

Humidity: 54%

Dew Point: 37 °F

Location of Stoke-on-TrentLocation

Past Weather in Stoke-on-Trent — Graph

°F

Stoke-on-Trent Temperature Yesterday

Maximum temperature yesterday: 52 °F (at 4:20 pm)
Minimum temperature yesterday: 30 °F (at 3:50 am)
Average temperature yesterday: 44 °F

High & Low Weather Summary for the Past Weeks

 TemperatureHumidityPressure
High55 °F (Apr 14, 2:20 pm)100% (Apr 14, 9:50 am)30.63 "Hg (Apr 14, 9:50 am)
Low30 °F (Apr 25, 5:20 am)37% (Apr 24, 6:20 pm)29.89 "Hg (Apr 14, 5:20 pm)
Average47 °F74%30.22 "Hg
* Reported Apr 13 1:20 pm — Apr 28 1:50 pm, Stoke-on-Trent, Weather by CustomWeather, © 2017

Note: Actual official high and low records may vary slightly from our data, if they occured in-between our weather recording intervals... More about our weather records

Advertising

Stoke-on-Trent Weather History for the Previous 24 Hours

Scroll right to see more
 ConditionsComfort  
Time TempWeatherWind HumidityBarometerVisibility
1:50 pm
Fri, Apr 28
54 °FPartly sunny.7 mph54%30.01 "HgN/A
1:20 pm54 °FPartly sunny.8 mph54%30.01 "HgN/A
12:50 pm54 °FPartly sunny.6 mph54%30.01 "HgN/A
12:20 pm54 °FPartly sunny.3 mph51%30.01 "HgN/A
11:50 am52 °FPartly sunny.2 mph54%30.04 "HgN/A
11:20 am52 °FPartly sunny.5 mph54%30.04 "HgN/A
10:50 am52 °FPartly sunny.3 mph54%30.04 "HgN/A
10:20 am50 °FPassing clouds.2 mph58%30.04 "HgN/A
9:50 am48 °FPartly sunny.3 mph66%30.04 "HgN/A
9:20 am48 °FScattered clouds.3 mph71%30.04 "HgN/A
8:20 am45 °FQuite cool.2 mph76%30.04 "HgN/A
7:50 am45 °FQuite cool.3 mph76%30.04 "HgN/A
7:20 am45 °FQuite cool.2 mph81%30.04 "HgN/A
6:50 am45 °FQuite cool.2 mph87%30.04 "HgN/A
6:20 am43 °FPassing clouds.2 mph87%30.04 "HgN/A
5:50 am43 °FPartly sunny.2 mph93%30.04 "HgN/A
5:20 am43 °FOvercast.2 mph93%30.04 "HgN/A
4:50 am43 °FMostly cloudy.1 mph93%30.04 "HgN/A
4:20 am43 °FLight rain. Mostly cloudy.5 mph93%30.04 "HgN/A
3:50 am43 °FLight rain. Overcast.5 mph100%30.04 "HgN/A
3:20 am43 °FMostly cloudy.2 mph93%30.04 "HgN/A
2:50 am43 °FLight rain. Mostly cloudy.3 mph93%30.04 "HgN/A
2:20 am45 °FRain. Mostly cloudy.6 mph87%30.04 "Hg2 mi
1:50 am45 °FOvercast.5 mph87%30.04 "HgN/A
1:20 am45 °FOvercast.6 mph87%30.04 "HgN/A
12:50 am46 °FMostly cloudy.6 mph87%30.04 "HgN/A
12:20 am46 °FMostly cloudy.5 mph87%30.04 "HgN/A
11:50 pm
Thu, Apr 27
48 °FMostly cloudy.7 mph82%30.04 "HgN/A
11:20 pm48 °FOvercast.9 mph87%30.04 "HgN/A
10:50 pm48 °FPassing clouds.9 mph87%30.04 "HgN/A
10:20 pm48 °FPassing clouds.10 mph87%30.04 "HgN/A
9:50 pm48 °FPassing clouds.12 mph82%30.04 "HgN/A
9:20 pm48 °FCool.13 mph82%30.01 "HgN/A
8:50 pm48 °FCool.13 mph82%30.01 "HgN/A
8:20 pm48 °FPassing clouds.12 mph82%30.01 "HgN/A
7:50 pm50 °FPassing clouds.14 mph76%30.01 "HgN/A
7:20 pm50 °FPassing clouds.14 mph76%30.01 "HgN/A
6:50 pm52 °FPartly sunny.16 mph67%30.01 "HgN/A
6:20 pm52 °FPartly sunny.15 mph67%30.01 "HgN/A
5:50 pm52 °FPartly sunny.14 mph62%30.01 "HgN/A
5:20 pm52 °FPartly sunny.14 mph62%30.01 "HgN/A
4:50 pm52 °FBroken clouds.16 mph62%30.01 "HgN/A
4:20 pm52 °FBroken clouds.15 mph62%30.01 "HgN/A
3:50 pm50 °FMostly cloudy.14 mph67%30.04 "HgN/A
3:20 pm50 °FMore clouds than sun.15 mph67%30.04 "HgN/A
Weather by CustomWeather, © 2017

See weather overviewHow to use our weather pages